Location: Elaina
(34.1445°N, 106.7742°W)
Time: 03:52:14
(UTC+00:00)

NOSS 3-1 (A) - Pass Details

Date: 11 December 2025
Orbit: 613 x 1593 km, 63.4° (Epoch: 10 January)

Event Time Altitude Azimuth Distance (km) Brightness Sun altitude
Exits shadow 13:10:22 - 328° (NNW) 3,591 6.0 -10.8°
Reaches altitude 10° 13:11:41 10° 328° (NNW) 3,151 5.7 -10.5°
Maximum altitude 13:19:33 86° 241° (WSW) 1,410 4.3 -9.0°
Drops below altitude 10° 13:28:59 10° 154° (SSE) 3,735 7.3 -7.2°
Sets 13:32:10 0° 154° (SSE) 4,758 8.0 -6.6°
